Weather History for Traverse City, MI

Change the Weather History Date:

Thursday, June 27, 2013

  Actual Average Record
Temperature  
Mean Temperature 72 °F 67 °F  
Max Temperature 81 °F 79 °F 102 °F (1901)
Min Temperature 62 °F 56 °F 38 °F (1897)
Degree Days  
Heating Degree Days 0 2  
Month to date heating degree days 102 108  
Since 1 June heating degree days 102 108  
Since 1 July heating degree days 7077 7544  
Cooling Degree Days 7 4  
Month to date cooling degree days 78 67  
Year to date cooling degree days 120 87  
Since 1 June cooling degree days 78 67  
Growing Degree Days 22 (Base 50)    
Moisture  
Dew Point 63 °F    
Average Humidity 74    
Maximum Humidity 93    
Minimum Humidity 54    
Precipitation  
Precipitation 0.01 in 0.11 in 1.46 in (1983)
Month to date precipitation 1.26 2.82  
Year to date precipitation 13.64 14.37  
Sea Level Pressure  
Sea Level Pressure 29.72 in    
Wind  
Wind Speed 4 mph (NNE)    
Max Wind Speed 18 mph    
Max Gust Speed 23 mph    
Visibility 10 miles    
Events Rain    
T = Trace of Precipitation, MM = Missing Value Source: NWS Daily Summary

Daily Weather History Graph

Daily Weather History Graph

Search for Another Location

Airport:

Trip Planner

Search our weather history database for the weather conditions in past years. The results will help you decide how hot, cold, wet, or windy it might be!

Date:

Astronomy

Jun. 27, 2013 Rise Set
Actual Time 5:58 AM EDT 9:32 PM EDT
Civil Twilight 5:21 AM EDT 10:09 PM EDT
Nautical Twilight 4:32 AM EDT 10:58 PM EDT
Astronomical Twilight 3:28 AM EDT 12:02 AM EDT
Moon No Moon Rise 11:12 AM EDT
Length of Visible Light 16h 47m
Length of Day
15h 33m
Waning Gibbous, 76% of the Moon is Illuminated
Jun 27
Waning Gibbous
Jun 30
Last Quarter
Jul 8
New
Jul 15
First Quarter
Jul 22
Full

Hourly Weather History & Observations

Time (EDT) Temp. Heat Index Dew Point Humidity Pressure Visibility Wind Dir Wind Speed Gust Speed Precip Events Conditions
12:53 AM 68.0 °F - 64.0 °F 87% 29.75 in 10.0 mi Calm Calm - N/A   Scattered Clouds
1:53 AM 66.9 °F - 63.0 °F 87% 29.77 in 10.0 mi ESE 3.5 mph - N/A   Partly Cloudy
2:53 AM 64.9 °F - 63.0 °F 93% 29.75 in 6.0 mi Calm Calm - N/A   Clear
3:53 AM 64.9 °F - 63.0 °F 93% 29.75 in 7.0 mi Calm Calm - N/A   Clear
4:53 AM 66.0 °F - 63.0 °F 90% 29.73 in 7.0 mi Calm Calm - N/A   Mostly Cloudy
5:53 AM 66.9 °F - 64.0 °F 90% 29.73 in 10.0 mi Calm Calm - N/A   Partly Cloudy
6:53 AM 69.1 °F - 63.0 °F 81% 29.73 in 10.0 mi NW 4.6 mph - 0.00 in Rain Light Rain
7:53 AM 69.1 °F - 64.9 °F 87% 29.74 in 9.0 mi North 5.8 mph - 0.01 in   Overcast
8:53 AM 66.9 °F - 62.1 °F 84% 29.76 in 10.0 mi NNE 3.5 mph - N/A   Overcast
9:53 AM 68.0 °F - 62.1 °F 81% 29.76 in 10.0 mi East 3.5 mph - N/A   Overcast
10:53 AM 69.1 °F - 62.1 °F 78% 29.75 in 10.0 mi NNE 5.8 mph - N/A   Overcast
11:53 AM 73.0 °F - 63.0 °F 71% 29.74 in 10.0 mi ENE 6.9 mph - N/A   Mostly Cloudy
12:53 PM 73.0 °F - 63.0 °F 71% 29.72 in 10.0 mi NE 6.9 mph - N/A   Mostly Cloudy
1:53 PM 75.9 °F - 63.0 °F 64% 29.71 in 10.0 mi NE 6.9 mph - N/A   Mostly Cloudy
2:53 PM 78.1 °F - 63.0 °F 60% 29.70 in 10.0 mi NE 5.8 mph - N/A   Mostly Cloudy
3:53 PM 80.1 °F 81.5 °F 63.0 °F 56% 29.68 in 10.0 mi NE 6.9 mph - N/A   Mostly Cloudy
4:53 PM 79.0 °F - 63.0 °F 58% 29.67 in 10.0 mi NE 6.9 mph - N/A   Mostly Cloudy
5:53 PM 79.0 °F - 64.0 °F 60% 29.66 in 10.0 mi NNE 5.8 mph - N/A   Mostly Cloudy
6:53 PM 77.0 °F - 64.0 °F 64% 29.68 in 10.0 mi NNE 6.9 mph - N/A   Mostly Cloudy
7:24 PM 73.4 °F - 62.6 °F 69% 29.71 in 10.0 mi North 16.1 mph 23.0 mph N/A   Overcast
7:53 PM 69.1 °F - 61.0 °F 75% 29.70 in 10.0 mi Calm Calm - N/A   Mostly Cloudy
8:09 PM 69.8 °F - 60.8 °F 73% 29.70 in 10.0 mi North 4.6 mph - N/A   Mostly Cloudy
8:53 PM 69.1 °F - 62.1 °F 78% 29.68 in 10.0 mi Calm Calm - N/A   Mostly Cloudy
9:53 PM 69.1 °F - 62.1 °F 78% 29.69 in 10.0 mi Calm Calm - 0.00 in   Mostly Cloudy
10:53 PM 69.1 °F - 61.0 °F 75% 29.69 in 10.0 mi NW 6.9 mph - N/A   Clear
11:53 PM 64.9 °F - 61.0 °F 87% 29.66 in 10.0 mi Calm Calm - N/A   Scattered Clouds